EW9792 Weather Reports


Display with metric or nautical units.
time (UTC)temp
F
wind
direction
speed
MPH
gust
MPH
rain 1hr
in
rain 24hr
in
rain mn
in
humidity
%
barometer
mb
20190221182708 83 119 10.0 10.0 0.00 0.00 0.00 62 1016.2
20190221172705 82 90 12.0 9.0 0.00 0.00 0.00 64 1017.3
20190221172205 82 158 9.0 8.0 0.00 0.00 0.00 64 1017.4
20190221171705 82 174 9.0 10.0 0.00 0.00 0.00 64 1017.4
20190221171205 81 32 12.0 13.0 0.00 0.00 0.00 64 1017.6
20190221170705 82 125 11.0 10.0 0.00 0.00 0.00 65 1017.6
20190221170205 82 138 8.0 10.0 0.00 0.00 0.00 64 1017.6
20190221165705 82 158 10.0 9.0 0.00 0.00 0.00 63 1017.8
20190221165204 81 148 16.0 14.0 0.00 0.00 0.00 63 1017.8
20190221164705 81 135 13.0 10.0 0.00 0.00 0.00 65 1017.9
20190221164205 80 112 12.0 12.0 0.00 0.00 0.00 67 1017.9
20190221163704 81 112 12.0 10.0 0.00 0.00 0.00 66 1017.9
20190221163204 80 122 9.0 12.0 0.00 0.00 0.00 67 1017.9
20190221162704 81 161 8.0 10.0 0.00 0.00 0.00 68 1017.9
20190221162205 80 177 10.0 12.0 0.00 0.00 0.00 68 1018.0
20190221161704 80 166 11.0 10.0 0.00 0.00 0.00 67 1018.0
20190221161205 81 127 9.0 10.0 0.00 0.00 0.00 68 1017.9
20190221160705 80 214 10.0 9.0 0.00 0.00 0.00 68 1017.9
20190221160204 81 160 9.0 9.0 0.00 0.00 0.00 67 1017.9
20190221155705 80 158 11.0 10.0 0.00 0.00 0.00 67 1018.0
20190221155204 81 84 12.0 10.0 0.00 0.00 0.00 67 1018.0
20190221154705 81 112 11.0 8.0 0.00 0.00 0.00 66 1018.0
20190221154205 81 184 10.0 12.0 0.00 0.00 0.00 65 1018.0
20190221153705 80 141 12.0 9.0 0.00 0.00 0.00 67 1017.7
20190221153204 80 115 11.0 12.0 0.00 0.00 0.00 67 1017.7
20190221152705 80 116 9.0 10.0 0.00 0.00 0.00 68 1017.7
20190221152205 80 169 11.0 13.0 0.00 0.00 0.00 68 1017.8
20190221151704 79 152 11.0 9.0 0.00 0.00 0.00 67 1017.8
20190221151205 80 64 12.0 14.0 0.00 0.00 0.00 67 1017.9
20190221150704 80 153 12.0 10.0 0.00 0.00 0.00 68 1017.9
20190221150204 80 144 11.0 10.0 0.00 0.00 0.00 69 1017.8
20190221145705 79 165 7.0 9.0 0.00 0.00 0.00 69 1017.6
20190221145205 79 161 9.0 9.0 0.00 0.00 0.00 70 1017.6
20190221144704 79 144 10.0 7.0 0.00 0.00 0.00 71 1017.6
20190221144205 79 141 7.0 8.0 0.00 0.00 0.00 71 1017.6
20190221143704 79 135 6.0 6.0 0.00 0.00 0.00 71 1017.5
20190221143205 79 152 7.0 8.0 0.00 0.00 0.00 71 1017.5
20190221142704 79 139 7.0 7.0 0.00 0.00 0.00 72 1017.5
20190221142205 78 128 10.0 10.0 0.00 0.00 0.00 72 1017.2
20190221141704 78 189 9.0 8.0 0.00 0.00 0.00 72 1017.2
20190221141204 78 171 13.0 10.0 0.00 0.00 0.00 73 1017.2
20190221140704 78 158 12.0 8.0 0.00 0.00 0.00 74 1017.2
20190221140204 78 152 7.0 6.0 0.00 0.00 0.00 75 1017.1
20190221135705 77 136 7.0 6.0 0.00 0.00 0.00 76 1017.0
20190221135204 77 231 7.0 6.0 0.00 0.00 0.00 77 1017.0
20190221134705 76 177 8.0 6.0 0.00 0.00 0.00 78 1016.9
20190221134204 76 105 5.0 5.0 0.00 0.00 0.00 80 1016.9
20190221133704 75 212 4.0 5.0 0.00 0.00 0.00 81 1016.9
20190221133204 75 175 6.0 5.0 0.00 0.00 0.00 81 1016.9
20190221132705 74 174 2.0 3.0 0.00 0.00 0.00 83 1016.9
20190221132205 74 158 1.0 2.0 0.00 0.00 0.00 83 1016.7
20190221131705 74 158 1.0 2.0 0.00 0.00 0.00 83 1016.7
20190221131204 74 158 0.0 2.0 0.00 0.00 0.00 82 1016.6
20190221130704 74 134 2.0 2.0 0.00 0.00 0.00 82 1016.6
20190221130204 74 129 5.0 3.0 0.00 0.00 0.00 81 1016.6
20190221125704 74 96 7.0 9.0 0.00 0.00 0.00 80 1016.3
20190221125205 75 125 10.0 12.0 0.00 0.00 0.00 79 1016.3
20190221124704 75 174 12.0 10.0 0.00 0.00 0.00 79 1016.4
20190221124205 75 151 6.0 6.0 0.00 0.00 0.00 80 1016.4
20190221123704 74 93 6.0 5.0 0.00 0.00 0.00 81 1016.4
20190221123204 74 158 6.0 7.0 0.00 0.00 0.00 82 1016.4
20190221122705 74 67 6.0 6.0 0.00 0.00 0.00 82 1016.4
20190221122204 74 141 6.0 6.0 0.00 0.00 0.00 82 1016.1
20190221121705 73 130 2.0 2.0 0.00 0.00 0.00 83 1016.1
20190221121204 73 166 5.0 5.0 0.00 0.00 0.00 83 1016.0
20190221120705 73 163 3.0 6.0 0.00 0.00 0.00 83 1016.0
20190221120205 73 173 0.0 3.0 0.00 0.00 0.00 83 1015.9
20190221115705 73 164 3.0 2.0 0.00 0.00 0.00 83 1015.7
20190221115205 73 172 2.0 3.0 0.00 0.00 0.00 83 1015.7
20190221114704 73 188 4.0 3.0 0.00 0.00 0.00 83 1015.6
20190221114204 73 147 3.0 2.0 0.00 0.00 0.00 83 1015.6
20190221113705 73 127 4.0 3.0 0.00 0.00 0.00 84 1015.6
20190221113204 73 147 0.0 2.0 0.00 0.00 0.00 84 1015.6
20190221112704 73 142 1.0 2.0 0.00 0.00 0.00 84 1015.6
20190221112204 73 160 3.0 3.0 0.00 0.00 0.00 84 1015.6
20190221111704 73 147 2.0 3.0 0.00 0.00 0.00 84 1015.6
20190221111204 73 153 5.0 3.0 0.00 0.00 0.00 84 1015.7
20190221110704 73 194 2.0 5.0 0.00 0.00 0.00 84 1015.7
20190221110205 73 180 0.0 5.0 0.00 0.00 0.00 84 1015.6
20190221105704 73 141 2.0 3.0 0.00 0.00 0.00 84 1015.4
20190221105204 73 142 1.0 2.0 0.00 0.00 0.00 83 1015.4
20190221104704 73 145 5.0 3.0 0.00 0.00 0.00 83 1015.3
20190221104205 73 104 2.0 2.0 0.00 0.00 0.00 83 1015.3
20190221103705 73 112 6.0 3.0 0.00 0.00 0.00 83 1015.4
20190221103204 74 112 6.0 3.0 0.00 0.00 0.00 83 1015.4
20190221102705 74 123 6.0 5.0 0.00 0.00 0.00 82 1015.4
20190221102204 74 135 6.0 5.0 0.00 0.00 0.00 81 1015.4
20190221101705 74 191 7.0 6.0 0.00 0.00 0.00 80 1015.4
20190221101204 74 177 7.0 6.0 0.00 0.00 0.00 80 1015.1
20190221100705 74 166 7.0 6.0 0.00 0.00 0.00 80 1015.1
20190221100205 74 137 5.0 6.0 0.00 0.00 0.00 80 1015.1
20190221095704 74 130 6.0 10.0 0.00 0.00 0.00 80 1015.2
20190221095205 74 87 6.0 8.0 0.00 0.00 0.00 80 1015.2
20190221094705 74 164 8.0 10.0 0.00 0.00 0.00 80 1015.2
20190221094204 74 171 3.0 8.0 0.00 0.00 0.00 82 1015.2
20190221093705 74 176 6.0 6.0 0.00 0.00 0.00 82 1015.1
20190221093204 74 157 3.0 6.0 0.00 0.00 0.00 82 1015.1
20190221092704 74 176 5.0 5.0 0.00 0.00 0.00 82 1015.1
20190221092204 74 90 5.0 6.0 0.00 0.00 0.00 82 1015.1
20190221091704 74 125 6.0 6.0 0.00 0.00 0.00 82 1015.1
20190221091204 74 136 7.0 6.0 0.00 0.00 0.00 82 1015.0
20190221090704 74 179 4.0 5.0 0.00 0.02 0.00 82 1015.0
20190221090204 74 90 5.0 6.0 0.00 0.02 0.00 82 1015.0
20190221085704 74 152 5.0 6.0 0.00 0.02 0.00 82 1015.0
20190221085204 74 134 5.0 5.0 0.00 0.02 0.00 81 1015.0
20190221084704 74 203 3.0 5.0 0.00 0.02 0.00 81 1015.2
20190221084205 74 165 5.0 5.0 0.00 0.03 0.00 81 1015.2
20190221083705 74 159 5.0 7.0 0.00 0.04 0.00 81 1015.3
20190221083205 74 86 6.0 5.0 0.00 0.04 0.00 81 1015.3
20190221082705 74 112 2.0 5.0 0.00 0.04 0.00 81 1015.3
20190221082204 74 108 5.0 3.0 0.00 0.04 0.00 81 1015.3
20190221081704 74 144 5.0 6.0 0.00 0.04 0.00 81 1015.3
20190221081206 74 122 5.0 3.0 0.00 0.04 0.00 81 1015.2
20190221080705 74 115 6.0 5.0 0.00 0.04 0.00 81 1015.2
20190221080205 74 109 5.0 5.0 0.00 0.04 0.00 81 1015.2
20190221075704 74 127 6.0 5.0 0.00 0.04 0.00 81 1015.3
20190221075204 74 141 5.0 8.0 0.00 0.04 0.00 81 1015.3
20190221074704 74 122 6.0 6.0 0.00 0.04 0.00 81 1015.3
20190221074204 74 164 5.0 5.0 0.00 0.04 0.00 81 1015.3
20190221073705 74 171 6.0 5.0 0.00 0.04 0.00 81 1015.4
20190221073204 75 180 5.0 3.0 0.00 0.04 0.00 81 1015.4
20190221072705 75 169 5.0 5.0 0.00 0.04 0.00 81 1015.4
20190221072205 75 135 6.0 5.0 0.00 0.04 0.00 81 1015.7
20190221071704 75 171 7.0 6.0 0.00 0.04 0.00 81 1015.7
20190221071204 75 123 4.0 5.0 0.00 0.04 0.00 81 1015.7
20190221070705 75 159 5.0 5.0 0.00 0.04 0.00 81 1015.7
20190221070204 75 121 6.0 6.0 0.00 0.04 0.00 81 1015.7
20190221065704 75 149 8.0 7.0 0.00 0.04 0.00 81 1015.7
20190221065204 75 166 6.0 5.0 0.00 0.04 0.00 81 1015.7
20190221064704 74 111 5.0 6.0 0.00 0.04 0.00 81 1015.9
20190221064204 74 167 5.0 3.0 0.00 0.04 0.00 81 1015.9
20190221063705 75 168 5.0 2.0 0.00 0.04 0.00 81 1015.9
20190221063204 75 129 6.0 6.0 0.00 0.04 0.00 81 1015.9
20190221062704 75 137 2.0 5.0 0.00 0.04 0.00 81 1015.9
20190221062204 75 191 4.0 3.0 0.00 0.04 0.00 81 1015.9
20190221061705 75 113 6.0 6.0 0.00 0.04 0.00 81 1015.9
20190221061204 75 158 5.0 5.0 0.00 0.04 0.00 81 1015.9
20190221060705 75 174 6.0 5.0 0.00 0.04 0.00 81 1015.9
20190221060204 75 180 3.0 3.0 0.00 0.04 0.00 81 1015.9
20190221055704 75 136 5.0 5.0 0.00 0.04 0.00 81 1016.1
20190221055204 75 173 5.0 5.0 0.00 0.04 0.00 81 1016.1
20190221054704 75 154 5.0 3.0 0.00 0.04 0.00 81 1016.1
20190221054204 75 144 6.0 6.0 0.00 0.04 0.00 81 1016.1
20190221053704 75 123 3.0 3.0 0.00 0.04 0.00 81 1016.2
20190221053204 75 126 5.0 5.0 0.00 0.04 0.00 81 1016.2
20190221052704 75 189 5.0 5.0 0.00 0.04 0.00 81 1016.2
20190221052204 75 172 1.0 6.0 0.00 0.04 0.00 81 1016.3
20190221051705 75 135 6.0 6.0 0.00 0.04 0.00 81 1016.3
20190221051205 75 112 2.0 6.0 0.00 0.04 0.00 81 1016.3
20190221050704 75 158 5.0 5.0 0.00 0.04 0.00 81 1016.3
20190221050205 75 149 4.0 5.0 0.00 0.04 0.00 81 1016.5
20190221045704 75 133 6.0 6.0 0.00 0.04 0.04 81 1016.5
20190221045204 75 144 5.0 5.0 0.00 0.04 0.04 81 1016.5
20190221044705 75 133 5.0 5.0 0.00 0.04 0.04 82 1016.5
20190221044204 75 174 5.0 6.0 0.00 0.04 0.04 82 1016.5
20190221043704 75 123 6.0 6.0 0.00 0.04 0.04 82 1016.5
20190221043205 75 116 5.0 3.0 0.00 0.04 0.04 82 1016.5
20190221042705 75 125 5.0 3.0 0.00 0.04 0.04 82 1016.5
20190221042204 75 135 3.0 3.0 0.00 0.04 0.04 82 1016.4
20190221041704 75 115 6.0 5.0 0.00 0.04 0.04 82 1016.4
20190221041205 74 135 1.0 5.0 0.00 0.04 0.04 82 1016.5
20190221040704 74 112 4.0 3.0 0.00 0.04 0.04 82 1016.5
20190221040205 74 121 6.0 5.0 0.00 0.04 0.04 82 1016.5
20190221035704 74 151 1.0 5.0 0.00 0.04 0.04 82 1016.5
20190221035204 74 128 5.0 5.0 0.00 0.04 0.04 82 1016.5
20190221034704 74 163 3.0 2.0 0.00 0.04 0.04 82 1016.6
20190221034204 74 158 5.0 3.0 0.00 0.04 0.04 82 1016.6
20190221033704 74 171 2.0 2.0 0.00 0.04 0.04 82 1016.5
20190221033204 74 168 3.0 5.0 0.00 0.04 0.04 82 1016.5
20190221032705 74 135 3.0 5.0 0.00 0.04 0.04 82 1016.5
20190221032204 74 150 0.0 0.0 0.00 0.04 0.04 82 1016.4
20190221031704 74 169 0.0 0.0 0.00 0.04 0.04 82 1016.4
20190221031205 74 148 0.0 0.0 0.00 0.04 0.04 82 1016.6
20190221030705 74 147 0.0 0.0 0.00 0.04 0.04 82 1016.6
20190221030204 74 139 1.0 3.0 0.00 0.04 0.04 82 1016.6
20190221025704 74 165 0.0 0.0 0.00 0.04 0.04 82 1016.6
20190221025204 74 158 0.0 0.0 0.00 0.04 0.04 82 1016.6
20190221024704 74 167 3.0 3.0 0.00 0.04 0.04 82 1016.5
20190221024204 74 128 2.0 3.0 0.00 0.04 0.04 82 1016.5
20190221023704 74 188 0.0 0.0 0.00 0.04 0.04 82 1016.3
20190221023205 74 135 0.0 3.0 0.00 0.04 0.04 82 1016.3
20190221022704 74 139 3.0 3.0 0.00 0.04 0.04 82 1016.3
20190221022204 74 122 0.0 0.0 0.00 0.04 0.04 82 1016.4
20190221021705 74 129 0.0 0.0 0.00 0.04 0.04 82 1016.4
20190221021205 74 178 0.0 0.0 0.00 0.04 0.04 82 1016.4
20190221020705 74 132 2.0 2.0 0.00 0.04 0.04 82 1016.4
20190221020204 74 170 0.0 2.0 0.00 0.04 0.04 82 1016.4
20190221015704 74 174 0.0 0.0 0.00 0.04 0.04 81 1016.3
20190221015204 74 158 0.0 0.0 0.00 0.04 0.04 81 1016.3
20190221014704 74 158 0.0 0.0 0.00 0.04 0.04 81 1016.1
20190221014204 74 158 1.0 2.0 0.00 0.04 0.04 81 1016.1
20190221013704 74 158 0.0 2.0 0.00 0.04 0.04 81 1016.0
20190221013204 74 163 3.0 3.0 0.00 0.04 0.04 81 1016.0
20190221012704 74 147 1.0 2.0 0.00 0.04 0.04 81 1016.0
20190221012204 74 175 4.0 2.0 0.00 0.04 0.04 81 1015.9
20190221011704 74 155 2.0 2.0 0.00 0.04 0.04 81 1015.9
20190221011204 74 179 2.0 2.0 0.00 0.04 0.04 81 1015.7
20190221010704 75 163 0.0 2.0 0.00 0.04 0.04 81 1015.7
20190221010204 75 136 3.0 3.0 0.00 0.04 0.04 81 1015.7
20190221005704 74 158 3.0 2.0 0.00 0.04 0.04 81 1015.6
20190221005204 74 112 5.0 3.0 0.00 0.04 0.04 81 1015.6
20190221004704 74 112 4.0 2.0 0.00 0.04 0.04 81 1015.5
20190221004204 74 158 0.0 0.0 0.00 0.04 0.04 81 1015.5
20190221003705 74 131 2.0 6.0 0.00 0.04 0.04 80 1015.4
20190221003205 74 187 1.0 2.0 0.00 0.04 0.04 80 1015.4
20190221002704 74 167 1.0 2.0 0.00 0.04 0.04 79 1015.4
20190221002204 74 161 0.0 2.0 0.00 0.04 0.04 78 1015.4
20190221001705 74 165 0.0 0.0 0.00 0.04 0.04 77 1015.4
20190221001205 75 123 0.0 2.0 0.00 0.04 0.04 76 1015.3
20190221000704 75 147 0.0 2.0 0.00 0.04 0.04 76 1015.3
20190221000205 75 149 0.0 0.0 0.00 0.04 0.04 76 1015.2
20190220235705 75 158 0.0 2.0 0.00 0.04 0.04 76 1015.2
20190220235204 75 153 0.0 3.0 0.00 0.04 0.04 76 1015.2
20190220234704 75 140 3.0 3.0 0.00 0.04 0.04 75 1015.4
20190220234204 76 168 1.0 2.0 0.00 0.04 0.04 75 1015.4
20190220233704 76 144 2.0 2.0 0.00 0.04 0.04 75 1015.2
20190220233204 76 158 0.0 3.0 0.00 0.04 0.04 74 1015.2
20190220232704 76 164 5.0 5.0 0.00 0.04 0.04 74 1015.2
20190220232204 76 170 0.0 3.0 0.00 0.04 0.04 74 1015.2
20190220231704 76 167 3.0 3.0 0.00 0.04 0.04 73 1015.2
20190220231204 77 168 1.0 3.0 0.00 0.04 0.04 73 1015.0
20190220230704 77 180 7.0 6.0 0.00 0.04 0.04 72 1015.0
20190220230204 77 114 6.0 6.0 0.00 0.04 0.04 71 1015.0
20190220225705 77 45 3.0 3.0 0.00 0.04 0.04 70 1015.0
20190220225204 78 165 7.0 6.0 0.00 0.04 0.04 70 1015.0
20190220224704 78 122 7.0 6.0 0.00 0.04 0.04 70 1015.0
20190220224204 78 156 4.0 5.0 0.00 0.04 0.04 70 1015.0
20190220223704 78 158 8.0 6.0 0.00 0.04 0.04 70 1015.0
20190220223204 78 170 6.0 6.0 0.00 0.04 0.04 72 1015.0
20190220222704 78 134 5.0 5.0 0.00 0.04 0.04 72 1015.0
20190220222203 78 104 5.0 6.0 0.00 0.04 0.04 71 1015.0
20190220221704 79 121 6.0 6.0 0.00 0.04 0.04 71 1015.0
20190220221203 79 143 9.0 7.0 0.00 0.04 0.04 71 1014.9
20190220220704 79 154 5.0 8.0 0.00 0.04 0.04 71 1014.9
20190220220204 79 135 6.0 6.0 0.00 0.04 0.04 72 1015.0
20190220215704 79 166 7.0 6.0 0.00 0.04 0.04 72 1015.0
20190220215204 80 180 6.0 8.0 0.00 0.04 0.04 71 1015.0
20190220214704 80 189 6.0 5.0 0.00 0.04 0.04 69 1015.0
20190220214204 80 114 7.0 10.0 0.00 0.04 0.04 68 1015.0
20190220213704 79 195 8.0 8.0 0.00 0.04 0.04 69 1015.0
20190220213204 80 164 7.0 7.0 0.00 0.04 0.04 70 1015.0
20190220212704 80 155 7.0 8.0 0.00 0.04 0.04 71 1015.0
20190220212203 81 131 9.0 8.0 0.00 0.04 0.04 69 1014.9
20190220211705 80 114 10.0 7.0 0.00 0.04 0.04 69 1014.9
20190220211204 79 147 6.0 6.0 0.00 0.04 0.04 70 1015.0
20190220210704 79 135 7.0 6.0 0.00 0.04 0.04 71 1015.0
20190220210204 79 134 5.0 6.0 0.00 0.04 0.04 71 1014.9
20190220205704 79 133 6.0 10.0 0.00 0.04 0.04 71 1014.9
20190220205205 80 77 7.0 10.0 0.00 0.04 0.04 70 1014.9
20190220204704 80 159 7.0 7.0 0.00 0.04 0.04 70 1015.0
20190220204204 80 103 7.0 10.0 0.00 0.04 0.04 70 1015.0
20190220203704 80 140 6.0 6.0 0.00 0.04 0.04 71 1014.9
20190220203204 80 130 9.0 6.0 0.00 0.04 0.04 70 1014.9
20190220202704 80 115 7.0 6.0 0.00 0.04 0.04 69 1014.9
20190220202204 81 100 3.0 6.0 0.00 0.04 0.04 68 1015.0
20190220201704 80 162 8.0 7.0 0.00 0.04 0.04 67 1015.0
20190220201204 80 153 7.0 7.0 0.00 0.04 0.04 68 1015.0
20190220200704 80 123 7.0 8.0 0.00 0.04 0.04 68 1015.0
20190220200204 81 207 9.0 7.0 0.00 0.04 0.04 67 1015.1
20190220195704 81 121 7.0 6.0 0.00 0.04 0.04 67 1015.1
20190220195204 81 138 7.0 7.0 0.00 0.04 0.04 68 1015.1
20190220194704 81 158 7.0 6.0 0.00 0.04 0.04 67 1015.2
20190220194204 82 119 9.0 8.0 0.00 0.04 0.04 67 1015.2
20190220193704 82 141 7.0 8.0 0.00 0.04 0.04 65 1015.2
20190220193204 82 163 9.0 8.0 0.00 0.04 0.04 64 1015.2
20190220192704 81 112 6.0 7.0 0.00 0.04 0.04 66 1015.2
20190220192204 81 165 10.0 9.0 0.00 0.04 0.04 66 1015.3
20190220191706 81 72 9.0 6.0 0.00 0.04 0.04 68 1015.3
20190220191204 81 131 7.0 6.0 0.00 0.04 0.04 68 1015.5
20190220190704 82 114 8.0 7.0 0.00 0.04 0.04 66 1015.5
20190220190205 81 169 9.0 7.0 0.00 0.04 0.04 65 1015.6
20190220185704 81 165 7.0 6.0 0.00 0.04 0.04 67 1015.6
20190220185204 81 197 8.0 10.0 0.00 0.04 0.04 66 1015.6
20190220184704 82 113 9.0 10.0 0.00 0.04 0.04 65 1016.0
20190220184204 81 99 8.0 14.0 0.00 0.04 0.04 67 1016.0
20190220183704 81 206 10.0 9.0 0.00 0.04 0.04 67 1016.1
20190220183204 81 116 10.0 7.0 0.00 0.04 0.04 67 1016.1